QPF
0.00 0.00 0.00 0.00 0.03 0.00 0.00 0.00 0.00 0.00 0.00 0.00 0.00 0.00 0.00 0.02 0.00 0.00 0.00 0.00 0.00 0.00 0.00 0.00 0.05 0.04 0.04 0.06 0.03 0.02 0.05 0.05 0.05 0.01 0.00 0.01 0.01 0.02 0.01 0.00 0.01 0.02 0.01 0.01 0.00 0.01 0.02 0.02 0.02
0.00 0.00 0.00 0.02 0.00 0.00 0.01 0.00 0.00 0.00 0.00 0.00 0.00 0.00 0.00 0.00 0.00 0.00 0.00 0.00 0.01 0.00 0.00 0.00 0.07 0.03 0.03 0.02 0.05 0.02 0.01 0.01 0.03 0.00 0.02 0.01 0.01 0.01 0.01 0.01 0.00 0.01 0.01 0.03 0.00 0.00 0.01 0.05 0.05
0.00 0.00 0.04 0.01 0.00 0.00 0.00 0.00 0.00 0.00 0.00 0.00 0.00 0.00 0.00 0.00 0.00 0.00 0.00 0.00 0.00 0.00 0.00 0.01 0.05 0.01 0.00 0.00 0.02 0.00 0.03 0.01 0.00 0.00 0.00 0.00 0.00 0.00 0.00 0.00 0.00 0.00 0.01 0.00 0.00 0.00 0.00 0.00 0.00
0.00 0.00 0.00 0.00 0.00 0.00 0.00 0.00 0.00 0.00 0.00 0.00 0.00 0.00 0.00 0.00 0.00 0.00 0.00 0.00 0.00 0.01 0.00 0.00 0.01 0.00 0.00 0.00 0.00 0.01 0.03 0.00 0.00 0.00 0.02 0.02 0.00 0.00 0.00 0.00 0.00 0.00 0.00 0.00 0.00 0.00 0.00 0.00 0.00
0.00 0.00 0.00 0.00 0.00 0.00 0.00 0.00 0.00 0.00 0.00 0.00 0.00 0.00 0.00 0.00 0.00 0.00 0.00 0.01 0.00 0.01 0.00 0.00 0.00 0.00 0.00 0.01 0.00 0.02 0.02 0.00 0.00 0.00 0.02 0.03 0.01 0.00 0.00 0.00 0.00 0.00 0.00 0.00 0.00 0.00 0.00 0.00 0.00
0.00 0.00 0.00 0.00 0.00 0.00 0.00 0.00 0.00 0.00 0.00 0.00 0.00 0.00 0.00 0.00 0.00 0.00 0.00 0.00 0.01 0.01 0.00 0.00 0.00 0.00 0.02 0.01 0.02 0.02 0.00 0.00 0.00 0.02 0.01 0.00 0.00 0.00 0.00 0.00 0.00 0.00 0.00 0.00 0.00 0.00 0.00 0.00 0.00
0.05 0.00 0.00 0.00 0.00 0.00 0.00 0.00 0.00 0.00 0.00 0.00 0.00 0.00 0.00 0.00 0.00 0.00 0.00 0.00 0.01 0.01 0.00 0.00 0.00 0.00 0.03 0.02 0.01 0.01 0.00 0.00 0.00 0.00 0.00 0.00 0.00 0.00 0.00 0.00 0.00 0.00 0.00 0.00 0.00 0.00 0.00 0.00 0.00
0.00 0.00 0.00 0.00 0.00 0.00 0.00 0.00 0.00 0.00 0.00 0.00 0.00 0.00 0.00 0.00 0.00 0.00 0.00 0.00 0.01 0.01 0.01 0.00 0.00 0.00 0.00 0.02 0.00 0.00 0.00 0.00 0.00 0.00 0.00 0.00 0.00 0.00 0.00 0.00 0.00 0.00 0.00 0.00 0.00 0.00 0.00 0.00 0.00
0.00 0.00 0.00 0.00 0.00 0.00 0.00 0.00 0.00 0.00 0.00 0.00 0.00 0.00 0.00 0.00 0.00 0.00 0.00 0.00 0.00 0.01 0.02 0.00 0.00 0.00 0.04 0.02 0.00 0.00 0.00 0.00 0.00 0.00 0.00 0.00 0.00 0.00 0.00 0.00 0.00 0.00 0.00 0.00 0.00 0.00 0.00 0.00 0.00
0.00 0.00 0.00 0.00 0.00 0.00 0.00 0.00 0.00 0.00 0.00 0.00 0.00 0.00 0.00 0.00 0.00 0.00 0.00 0.00 0.00 0.00 0.01 0.00 0.00 0.00 0.00 0.00 0.00 0.00 0.00 0.00 0.00 0.00 0.00 0.00 0.00 0.00 0.00 0.00 0.00 0.00 0.00 0.00 0.00 0.00 0.00 0.00 0.00
0.00 0.00 0.00 0.00 0.00 0.00 0.00 0.00 0.00 0.00 0.00 0.00 0.00 0.00 0.00 0.00 0.00 0.00 0.00 0.00 0.00 0.00 0.00 0.00 0.00 0.00 0.00 0.00 0.00 0.00 0.00 0.00 0.00 0.00 0.00 0.00 0.00 0.00 0.00 0.00 0.00 0.00 0.00 0.00 0.00 0.00 0.00 0.00 0.00
0.01 0.00 0.00 0.00 0.00 0.00 0.00 0.00 0.00 0.00 0.00 0.00 0.00 0.00 0.00 0.00 0.00 0.00 0.00 0.00 0.01 0.00 0.00 0.00 0.00 0.00 0.00 0.00 0.00 0.00 0.00 0.00 0.00 0.00 0.00 0.00 0.00 0.00 0.00 0.00 0.00 0.00 0.00 0.00 0.00 0.00 0.00 0.00 0.00
0.00 0.00 0.00 0.00 0.00 0.00 0.00 0.00 0.00 0.00 0.00 0.00 0.00 0.00 0.00 0.00 0.00 0.00 0.01 0.01 0.01 0.01 0.00 0.00 0.00 0.00 0.00 0.00 0.00 0.00 0.00 0.00 0.00 0.00 0.00 0.00 0.00 0.00 0.00 0.00 0.00 0.00 0.00 0.00 0.00 0.00 0.00 0.00 0.00
0.00 0.00 0.00 0.00 0.00 0.00 0.00 0.00 0.00 0.00 0.00 0.00 0.00 0.00 0.00 0.00 0.00 0.00 0.00 0.00 0.00 0.01 0.00 0.00 0.00 0.00 0.00 0.00 0.00 0.00 0.00 0.00 0.00 0.00 0.00 0.00 0.00 0.00 0.00 0.00 0.00 0.00 0.00 0.00 0.00 0.00 0.00 0.00 0.00
0.00 0.00 0.00 0.00 0.00 0.00 0.00 0.00 0.00 0.00 0.00 0.00 0.00 0.00 0.00 0.00 0.00 0.00 0.00 0.00 0.01 0.01 0.00 0.00 0.00 0.00 0.00 0.00 0.00 0.00 0.00 0.00 0.00 0.00 0.00 0.00 0.00 0.00 0.00 0.00 0.00 0.00 0.00 0.00 0.00 0.00 0.00 0.00 0.00
0.02 0.02 0.04 0.00 0.00 0.00 0.01 0.01 0.00 0.00 0.00 0.00 0.00 0.00 0.00 0.00 0.00 0.00 0.00 0.00 0.00 0.01 0.00 0.00 0.00 0.00 0.00 0.00 0.00 0.00 0.00 0.00 0.00 0.00 0.00 0.00 0.00 0.00 0.00 0.00 0.00 0.00 0.00 0.00 0.00 0.00 0.00 0.00 0.00
0.06 0.08 0.07 0.00 0.00 0.00 0.01 0.00 0.00 0.00 0.00 0.00 0.00 0.00 0.00 0.00 0.00 0.00 0.00 0.00 0.00 0.00 0.00 0.00 0.00 0.00 0.00 0.00 0.00 0.00 0.00 0.00 0.00 0.00 0.00 0.00 0.00 0.00 0.00 0.00 0.00 0.00 0.00 0.00 0.00 0.00 0.00 0.00 0.00
0.01 0.01 0.00 0.01 0.00 0.00 0.00 0.00 0.00 0.00 0.00 0.00 0.00 0.00 0.00 0.00 0.00 0.00 0.00 0.00 0.00 0.00 0.00 0.00 0.00 0.00 0.00 0.00 0.00 0.00 0.00 0.00 0.00 0.00 0.00 0.00 0.00 0.00 0.00 0.00 0.00 0.00 0.00 0.00 0.00 0.00 0.00 0.00 0.00
0.00 0.01 0.01 0.02 0.00 0.00 0.00 0.00 0.00 0.00 0.00 0.00 0.00 0.00 0.00 0.00 0.00 0.00 0.00 0.00 0.00 0.00 0.00 0.00 0.00 0.00 0.00 0.00 0.00 0.00 0.00 0.00 0.00 0.00 0.00 0.00 0.00 0.00 0.00 0.00 0.00 0.00 0.00 0.00 0.00 0.00 0.00 0.00 0.00
0.00 0.00 0.00 0.00 0.00 0.02 0.01 0.00 0.00 0.00 0.00 0.00 0.00 0.00 0.00 0.00 0.00 0.00 0.00 0.00 0.00 0.00 0.00 0.00 0.00 0.00 0.00 0.00 0.00 0.00 0.00 0.00 0.00 0.00 0.00 0.00 0.00 0.00 0.00 0.00 0.00 0.00 0.00 0.00 0.00 0.00 0.00 0.00 0.00
0.00 0.00 0.00 0.00 0.00 0.04 0.14 0.02 0.00 0.00 0.00 0.00 0.00 0.00 0.00 0.00 0.00 0.00 0.00 0.00 0.00 0.00 0.00 0.00 0.00 0.00 0.00 0.00 0.00 0.00 0.05 0.02 0.00 0.00 0.00 0.00 0.00 0.00 0.00 0.00 0.00 0.00 0.00 0.00 0.00 0.00 0.00 0.00 0.00
0.00 0.00 0.00 0.00 0.00 0.00 0.00 0.18 0.24 0.01 0.00 0.00 0.00 0.00 0.00 0.00 0.00 0.00 0.00 0.00 0.00 0.00 0.00 0.00 0.00 0.00 0.00 0.00 0.00 0.02 0.08 0.01 0.00 0.01 0.00 0.00 0.00 0.00 0.00 0.00 0.00 0.00 0.00 0.00 0.00 0.00 0.00 0.00 0.00
0.00 0.00 0.00 0.00 0.00 0.01 0.01 0.00 0.08 0.03 0.00 0.00 0.00 0.00 0.00 0.00 0.00 0.00 0.00 0.00 0.00 0.00 0.00 0.00 0.00 0.00 0.00 0.00 0.01 0.04 0.09 0.02 0.01 0.16 0.04 0.00 0.00 0.00 0.00 0.00 0.00 0.00 0.00 0.00 0.00 0.00 0.00 0.00 0.00
0.00 0.00 0.00 0.00 0.00 0.00 0.00 0.00 0.00 0.00 0.00 0.00 0.00 0.00 0.00 0.00 0.00 0.00 0.00 0.00 0.00 0.00 0.00 0.00 0.00 0.03 0.07 0.06 0.03 0.23 0.22 0.13 0.01 0.12 0.06 0.00 0.00 0.00 0.00 0.00 0.00 0.00 0.00 0.00 0.00 0.00 0.00 0.00 0.00
0.00 0.00 0.00 0.00 0.00 0.00 0.00 0.00 0.00 0.00 0.00 0.00 0.00 0.00 0.00 0.00 0.00 0.00 0.00 0.00 0.00 0.00 0.00 0.01 0.01 0.13 0.08 0.02 0.01 0.05 0.14 0.09 0.02 0.24 0.08 0.07 0.07 0.05 0.02 0.03 0.06 0.02 0.04 0.03 0.02 0.00 0.00 0.00 0.01
0.00 0.00 0.00 0.00 0.00 0.00 0.00 0.00 0.00 0.00 0.00 0.00 0.00 0.00 0.00 0.00 0.00 0.00 0.00 0.00 0.00 0.03 0.01 0.00 0.01 0.04 0.01 0.01 0.04 0.07 0.10 0.09 0.13 0.16 0.15 0.22 0.22 0.12 0.07 0.04 0.06 0.05 0.05 0.08 0.09 0.05 0.02 0.01 0.01
0.00 0.00 0.00 0.00 0.00 0.00 0.00 0.00 0.00 0.00 0.00 0.00 0.00 0.00 0.00 0.00 0.00 0.01 0.01 0.06 0.07 0.04 0.02 0.01 0.03 0.05 0.12 0.07 0.03 0.02 0.08 0.03 0.00 0.03 0.02 0.02 0.02 0.02 0.02 0.01 0.00 0.01 0.03 0.07 0.09 0.09 0.10 0.07 0.03
0.00 0.00 0.00 0.00 0.00 0.00 0.00 0.00 0.00 0.00 0.00 0.00 0.00 0.00 0.00 0.00 0.03 0.08 0.04 0.05 0.03 0.01 0.01 0.00 0.01 0.03 0.14 0.21 0.11 0.01 0.00 0.00 0.00 0.00 0.00 0.00 0.00 0.00 0.00 0.00 0.00 0.00 0.00 0.00 0.01 0.03 0.09 0.12 0.06
0.00 0.00 0.00 0.00 0.00 0.00 0.00 0.00 0.00 0.00 0.00 0.00 0.00 0.01 0.01 0.01 0.03 0.04 0.07 0.09 0.08 0.04 0.02 0.01 0.01 0.01 0.01 0.01 0.00 0.00 0.00 0.00 0.00 0.00 0.00 0.00 0.00 0.00 0.00 0.00 0.00 0.00 0.00 0.00 0.00 0.00 0.01 0.04 0.08
0.00 0.00 0.00 0.00 0.00 0.00 0.00 0.00 0.00 0.00 0.00 0.00 0.00 0.00 0.03 0.05 0.05 0.06 0.04 0.04 0.08 0.06 0.02 0.00 0.00 0.00 0.00 0.00 0.00 0.00 0.00 0.00 0.00 0.00 0.00 0.00 0.00 0.00 0.00 0.00 0.00 0.00 0.00 0.00 0.00 0.00 0.00 0.00 0.01
MSLP
1008.54 1007.94 1007.31 1006.71 1006.09 1005.28 1005.24 1005.90 1006.01 1005.89 1005.93 1006.12 1006.47 1006.81 1007.51 1008.38 1008.05 1010.57 1012.53 1013.16 1013.76 1014.23 1015.07 1015.63 1016.18 1016.18 1016.35 1016.36 1016.43 1016.49 1016.57 1016.66 1016.56 1016.62 1016.71 1016.79 1016.82 1016.71 1016.71 1016.69 1016.72 1016.76 1016.75 1016.82 1016.95 1017.03 1017.06 1017.12 1017.16
1006.62 1007.28 1006.96 1005.01 1004.37 1004.48 1005.03 1005.31 1005.33 1005.82 1005.94 1006.38 1006.67 1006.74 1007.71 1009.12 1009.85 1011.12 1012.30 1013.15 1013.64 1014.11 1014.74 1015.61 1016.50 1016.42 1016.51 1016.62 1016.80 1016.76 1016.91 1016.95 1016.96 1016.99 1017.02 1017.09 1017.16 1017.18 1017.08 1017.11 1017.02 1017.17 1017.17 1017.19 1017.25 1017.34 1017.37 1017.36 1017.39
1007.30 1006.87 1005.70 1004.97 1003.29 1003.83 1004.48 1004.79 1005.16 1005.47 1005.96 1006.20 1006.77 1007.50 1008.51 1010.07 1010.75 1011.31 1012.70 1013.60 1014.06 1014.68 1015.17 1016.34 1016.63 1016.63 1016.77 1016.96 1017.00 1017.12 1017.18 1017.15 1017.17 1017.21 1017.29 1017.32 1017.38 1017.43 1017.41 1017.40 1017.40 1017.46 1017.46 1017.49 1017.54 1017.58 1017.55 1017.50 1017.53
1006.40 1005.26 1004.39 1003.20 1003.45 1003.65 1003.79 1004.09 1004.93 1005.41 1005.90 1006.35 1007.22 1008.86 1009.92 1010.63 1010.99 1012.22 1012.91 1013.17 1014.56 1014.87 1015.50 1016.65 1016.81 1016.96 1017.03 1017.20 1017.35 1017.49 1017.48 1017.51 1017.50 1017.52 1017.55 1017.56 1017.58 1017.68 1017.73 1017.73 1017.76 1017.76 1017.77 1017.72 1017.76 1017.72 1017.59 1017.52 1017.56
1005.87 1004.81 1004.10 1003.36 1003.26 1003.26 1003.64 1004.13 1004.70 1005.28 1005.77 1006.43 1007.16 1009.14 1010.36 1011.26 1011.68 1012.67 1013.12 1013.94 1014.62 1014.93 1015.78 1016.55 1017.11 1017.19 1017.38 1017.56 1017.70 1017.79 1017.75 1017.83 1017.82 1017.84 1017.82 1017.71 1017.77 1017.84 1017.97 1018.01 1018.02 1018.02 1017.96 1017.94 1017.94 1017.84 1017.73 1017.64 1017.64
1004.11 1004.41 1003.95 1003.59 1003.66 1003.85 1003.96 1004.08 1004.38 1004.89 1005.77 1006.97 1007.82 1009.37 1010.72 1011.84 1012.34 1012.91 1013.24 1013.91 1014.24 1014.87 1015.63 1016.42 1017.32 1017.45 1017.66 1017.87 1017.96 1018.02 1018.10 1018.14 1018.16 1018.12 1018.01 1018.04 1018.03 1018.04 1018.13 1018.16 1018.19 1018.17 1018.16 1018.18 1018.11 1018.03 1017.94 1017.86 1017.78
1004.17 1004.50 1003.28 1003.27 1003.63 1003.93 1004.25 1004.53 1004.42 1005.28 1006.06 1007.02 1008.27 1009.13 1011.09 1011.86 1012.39 1012.87 1013.36 1013.95 1014.40 1014.80 1015.31 1016.14 1016.77 1017.55 1017.90 1018.00 1018.18 1018.26 1018.31 1018.46 1018.45 1018.30 1018.23 1018.20 1018.22 1018.18 1018.20 1018.22 1018.30 1018.27 1018.26 1018.28 1018.21 1018.13 1018.05 1017.95 1017.91
1003.43 1002.62 1002.90 1003.29 1003.37 1004.32 1004.81 1004.70 1004.99 1005.25 1006.37 1007.22 1008.22 1009.21 1010.47 1011.54 1012.34 1013.04 1013.40 1013.75 1014.50 1015.01 1015.31 1015.91 1016.96 1017.18 1017.61 1017.71 1018.30 1018.35 1018.44 1018.62 1018.52 1018.35 1018.29 1018.07 1017.95 1018.06 1018.17 1018.07 1018.26 1018.21 1018.17 1018.17 1018.09 1017.98 1017.94 1017.90 1017.87
1004.23 1003.63 1002.66 1002.62 1003.34 1004.42 1004.86 1005.06 1005.56 1006.54 1007.16 1007.49 1007.74 1009.04 1010.41 1011.71 1012.29 1012.84 1013.31 1013.78 1014.41 1015.12 1015.60 1015.37 1016.39 1017.47 1017.38 1017.04 1018.07 1018.29 1018.42 1018.45 1018.37 1018.09 1017.95 1017.95 1016.87 1016.99 1017.54 1017.94 1018.05 1018.00 1017.86 1017.80 1017.71 1017.41 1017.39 1017.56 1017.54
1003.83 1002.61 1002.67 1002.90 1003.59 1004.14 1004.67 1005.14 1005.97 1006.48 1007.19 1007.78 1008.38 1009.75 1011.15 1011.84 1012.32 1012.65 1013.08 1013.52 1014.05 1014.58 1015.50 1015.84 1016.81 1017.10 1016.12 1016.44 1017.27 1017.33 1017.40 1017.15 1017.64 1017.64 1017.07 1016.64 1017.18 1016.98 1016.86 1017.39 1017.60 1017.50 1017.44 1017.38 1017.14 1016.87 1016.73 1017.01 1016.45
1003.11 1002.68 1003.20 1003.27 1003.77 1004.21 1004.75 1005.26 1005.77 1006.29 1007.10 1008.20 1009.07 1010.31 1011.24 1011.61 1012.26 1012.53 1012.92 1013.40 1013.69 1014.16 1014.98 1015.75 1016.07 1016.10 1015.48 1016.17 1016.63 1016.64 1016.72 1017.40 1018.05 1018.10 1017.35 1017.41 1016.82 1016.63 1016.40 1016.48 1016.48 1016.28 1016.90 1016.24 1016.70 1016.11 1015.88 1015.13 1014.77
1003.34 1003.02 1003.21 1003.86 1003.98 1004.47 1005.05 1005.43 1005.81 1005.81 1007.01 1008.31 1009.67 1010.63 1011.15 1011.39 1011.60 1011.97 1012.19 1013.47 1014.01 1014.15 1014.76 1015.90 1015.94 1015.95 1015.87 1016.71 1016.26 1016.40 1016.49 1016.77 1017.37 1017.81 1017.78 1017.34 1016.72 1016.72 1016.67 1016.36 1016.52 1016.21 1016.40 1016.15 1015.70 1015.60 1015.92 1015.56 1015.52
1003.26 1002.99 1003.42 1003.96 1004.29 1005.07 1005.63 1005.90 1006.68 1006.90 1007.80 1008.90 1009.89 1010.68 1011.07 1011.11 1011.60 1012.03 1012.77 1013.62 1014.22 1014.38 1014.80 1015.95 1016.58 1016.74 1016.90 1016.99 1017.12 1016.74 1016.89 1016.50 1017.02 1017.36 1017.90 1017.16 1016.96 1017.21 1016.81 1016.97 1016.44 1016.48 1016.34 1016.35 1016.21 1016.02 1016.10 1015.41 1015.02
1003.77 1003.17 1003.86 1004.52 1004.94 1005.44 1005.98 1006.59 1007.05 1007.50 1008.33 1009.27 1010.10 1010.45 1010.66 1010.89 1011.47 1012.20 1013.17 1014.32 1014.40 1014.78 1015.08 1016.42 1017.17 1017.08 1017.34 1017.39 1017.70 1017.35 1016.79 1017.16 1017.05 1016.86 1017.70 1017.96 1017.35 1017.94 1017.03 1016.84 1016.36 1016.48 1016.87 1016.76 1016.65 1016.52 1015.84 1015.19 1014.57
1003.37 1003.44 1004.05 1004.64 1005.09 1005.42 1005.86 1006.07 1007.17 1007.67 1008.51 1009.34 1009.79 1010.28 1010.65 1011.16 1011.61 1012.21 1012.73 1013.91 1014.57 1014.76 1014.99 1016.64 1017.01 1017.01 1017.47 1017.65 1017.79 1017.20 1017.44 1016.81 1016.99 1016.90 1017.90 1018.02 1017.96 1018.04 1017.85 1016.81 1016.60 1016.77 1016.99 1016.81 1016.45 1016.35 1015.65 1015.35 1014.79
1003.60 1003.51 1003.51 1004.55 1004.94 1005.50 1006.86 1006.64 1007.36 1007.98 1008.53 1009.05 1009.58 1010.14 1010.73 1011.17 1011.68 1012.11 1012.98 1013.57 1014.67 1015.09 1015.49 1016.24 1016.05 1016.66 1017.21 1017.51 1017.63 1016.97 1016.96 1016.91 1016.98 1016.94 1017.16 1017.86 1017.94 1017.97 1017.83 1016.79 1016.64 1017.60 1017.21 1016.50 1016.46 1016.33 1016.18 1015.72 1015.55
1004.01 1004.85 1004.63 1004.14 1004.22 1005.03 1006.52 1006.27 1007.14 1007.84 1008.16 1008.67 1009.30 1010.01 1010.45 1010.99 1011.55 1012.26 1012.91 1013.33 1013.98 1014.94 1015.23 1016.15 1016.08 1016.49 1017.07 1017.58 1017.40 1017.51 1017.56 1017.38 1016.70 1016.90 1016.88 1017.56 1017.77 1017.77 1018.07 1017.35 1016.99 1017.91 1017.31 1016.70 1016.65 1016.57 1016.78 1016.34 1016.01
1003.23 1003.37 1002.81 1003.12 1003.57 1004.27 1004.19 1005.23 1006.61 1007.11 1007.25 1007.99 1008.62 1009.37 1009.90 1010.58 1011.32 1012.04 1012.53 1012.97 1013.93 1014.62 1015.38 1015.88 1016.34 1016.50 1017.07 1017.23 1017.58 1017.12 1016.91 1016.88 1016.57 1016.84 1016.57 1017.12 1017.36 1017.64 1018.00 1017.32 1017.46 1017.74 1017.17 1016.84 1017.15 1017.65 1017.45 1017.06 1016.14
1001.95 1003.05 1002.74 1003.39 1002.98 1003.11 1003.34 1004.79 1005.92 1006.42 1006.61 1007.35 1007.91 1008.87 1009.29 1009.93 1010.88 1011.76 1012.33 1012.99 1013.78 1014.58 1015.37 1015.96 1016.41 1016.79 1017.22 1017.35 1017.21 1016.93 1016.64 1016.67 1016.66 1016.58 1016.87 1017.17 1017.46 1017.44 1017.55 1017.32 1016.87 1017.15 1017.08 1017.28 1017.68 1017.56 1017.20 1016.63 1016.03
1001.27 1001.46 1001.46 1001.94 1002.51 1002.79 1003.27 1004.65 1005.34 1005.90 1006.12 1006.84 1007.34 1007.94 1008.63 1009.44 1010.48 1011.45 1012.02 1012.57 1013.24 1014.22 1015.01 1015.76 1016.21 1016.78 1017.28 1017.11 1017.06 1016.65 1016.74 1016.82 1016.64 1017.16 1017.28 1016.82 1017.19 1017.19 1017.32 1017.52 1017.24 1017.03 1017.21 1017.19 1017.42 1017.56 1017.31 1016.51 1016.08
1000.35 1000.19 1000.87 1001.18 1002.18 1004.39 1004.92 1004.94 1004.96 1005.37 1005.81 1006.61 1006.98 1007.62 1007.88 1008.87 1010.05 1010.90 1011.53 1012.12 1012.65 1013.59 1014.55 1015.29 1016.03 1016.51 1017.00 1017.06 1017.05 1017.19 1017.30 1017.18 1016.73 1016.67 1016.45 1016.40 1016.95 1017.02 1017.15 1017.25 1017.36 1017.40 1017.54 1016.92 1016.81 1017.06 1017.03 1016.68 1016.21
999.20 999.73 1000.34 1000.77 1001.38 1002.92 1003.85 1006.05 1005.49 1004.75 1005.26 1006.24 1006.64 1007.31 1007.57 1008.10 1009.37 1010.20 1011.03 1011.69 1012.16 1012.74 1013.64 1014.61 1015.58 1016.17 1016.60 1017.00 1016.89 1016.93 1017.37 1017.09 1016.66 1016.87 1016.54 1016.75 1016.55 1016.91 1016.94 1017.00 1016.97 1017.14 1016.96 1016.92 1016.86 1016.79 1016.86 1016.72 1016.29
1000.13 1000.23 1000.20 1000.19 1000.98 1002.43 1002.61 1003.28 1004.02 1003.65 1004.36 1005.31 1006.05 1006.84 1007.18 1007.73 1008.30 1009.59 1010.22 1011.04 1011.68 1012.23 1012.94 1013.70 1014.90 1015.93 1016.35 1016.61 1017.16 1016.75 1017.14 1016.92 1017.03 1017.63 1017.23 1016.04 1016.46 1016.79 1016.70 1016.73 1016.85 1016.86 1016.76 1016.69 1016.71 1016.73 1016.75 1016.61 1016.24
1000.62 1000.65 1000.59 1000.28 1000.01 1000.15 1000.24 1001.45 1002.89 1003.07 1003.76 1004.61 1005.41 1006.28 1007.13 1007.56 1008.13 1008.55 1009.45 1010.52 1011.39 1012.01 1012.49 1013.00 1014.04 1015.31 1015.90 1016.35 1017.28 1017.59 1017.81 1017.48 1016.91 1017.46 1017.63 1016.15 1016.25 1016.77 1016.99 1015.97 1016.38 1016.67 1016.67 1016.71 1016.64 1016.64 1016.71 1016.62 1016.34
1001.10 1000.26 999.85 999.73 999.45 999.22 999.54 1001.04 1002.70 1004.19 1005.08 1004.83 1005.15 1005.62 1007.29 1008.33 1008.43 1008.89 1009.82 1010.70 1011.54 1012.74 1013.67 1014.19 1014.30 1016.11 1016.80 1017.13 1017.48 1017.82 1017.73 1017.82 1017.52 1017.20 1017.27 1017.26 1017.22 1017.30 1016.88 1016.99 1017.05 1016.78 1016.79 1016.55 1016.28 1016.30 1016.30 1016.21 1016.10
1001.01 1000.12 999.05 998.40 998.01 998.32 1000.03 1001.03 1002.84 1004.83 1006.24 1006.49 1006.86 1006.58 1006.87 1008.21 1008.97 1009.70 1010.64 1011.10 1012.47 1013.45 1014.48 1015.31 1015.98 1016.80 1017.43 1018.16 1018.06 1018.66 1018.51 1018.13 1018.04 1018.09 1018.09 1018.02 1017.86 1017.65 1017.35 1016.89 1016.57 1016.23 1016.30 1016.39 1016.36 1016.32 1015.80 1015.65 1015.45
1000.36 1000.12 999.79 999.05 998.71 999.05 999.35 1002.05 1004.06 1005.05 1006.13 1007.00 1007.29 1007.92 1008.03 1008.35 1009.93 1010.79 1012.10 1013.43 1013.97 1014.94 1015.68 1016.69 1017.45 1018.02 1018.67 1018.41 1018.92 1018.91 1019.15 1018.91 1019.07 1018.88 1018.45 1017.62 1017.62 1017.43 1017.27 1017.41 1017.02 1016.58 1016.24 1015.73 1015.98 1015.88 1015.77 1015.70 1015.24
1001.02 1000.49 1000.24 1000.26 999.81 999.55 999.89 1000.52 1001.81 1004.70 1006.28 1007.98 1008.85 1009.71 1011.54 1012.40 1012.78 1014.41 1014.50 1015.20 1015.61 1016.63 1016.81 1017.39 1018.09 1018.76 1019.02 1018.71 1018.78 1019.22 1019.23 1018.77 1019.18 1018.97 1018.70 1018.40 1018.25 1017.65 1018.00 1017.84 1017.27 1016.80 1016.42 1016.01 1015.65 1015.17 1015.09 1015.26 1014.85
1001.19 1001.08 1000.63 1000.07 999.72 999.41 999.95 1001.16 1002.93 1004.73 1006.83 1009.50 1011.96 1013.80 1014.81 1015.05 1015.52 1016.17 1016.67 1017.16 1017.84 1018.07 1018.01 1018.08 1018.20 1018.75 1019.03 1019.16 1019.05 1019.44 1019.47 1019.11 1019.20 1019.01 1018.50 1018.40 1017.92 1017.89 1018.12 1017.91 1017.35 1016.93 1016.48 1016.09 1015.64 1015.24 1015.03 1014.82 1014.61
1000.80 1000.29 1000.39 1000.05 1000.42 1000.60 1001.14 1002.57 1004.91 1006.45 1008.36 1011.45 1013.52 1015.43 1016.72 1017.39 1017.60 1018.03 1018.03 1018.36 1018.76 1018.88 1019.20 1019.22 1019.50 1019.58 1020.07 1020.21 1019.78 1020.30 1019.77 1019.44 1019.34 1019.01 1018.81 1018.65 1018.60 1018.32 1018.19 1017.63 1017.09 1016.70 1016.26 1015.90 1015.50 1014.98 1014.66 1014.17 1013.88
Thickness
5805 5811 5819 5811 5777 5793 5777 5775 5795 5790 5794 5812 5816 5805 5797 5798 5797 5765 5793 5792 5787 5783 5776 5772 5768 5769 5769 5769 5769 5769 5769 5768 5769 5768 5767 5766 5765 5766 5766 5766 5765 5764 5764 5764 5763 5762 5762 5761 5761
5825 5819 5816 5818 5795 5774 5773 5796 5791 5798 5811 5818 5815 5813 5800 5782 5801 5793 5789 5794 5790 5786 5781 5774 5768 5769 5770 5769 5769 5769 5768 5768 5768 5767 5766 5765 5764 5764 5764 5764 5765 5763 5763 5763 5763 5762 5762 5762 5762
5823 5826 5811 5793 5808 5785 5779 5803 5805 5814 5820 5816 5808 5814 5803 5783 5797 5797 5797 5793 5789 5784 5780 5771 5770 5770 5769 5768 5769 5768 5768 5768 5767 5766 5765 5764 5764 5763 5764 5764 5764 5764 5764 5764 5763 5763 5764 5765 5764
5824 5830 5831 5807 5792 5810 5811 5819 5819 5813 5819 5823 5815 5785 5800 5806 5801 5799 5800 5799 5787 5785 5780 5771 5770 5769 5769 5768 5768 5767 5767 5765 5765 5765 5765 5765 5765 5764 5763 5764 5764 5764 5764 5765 5764 5765 5767 5767 5766
5831 5819 5802 5801 5806 5820 5827 5828 5825 5811 5815 5815 5817 5787 5785 5800 5808 5802 5799 5794 5788 5787 5779 5773 5769 5768 5768 5767 5767 5767 5766 5764 5764 5763 5764 5766 5766 5765 5764 5764 5765 5765 5766 5766 5766 5767 5768 5769 5769
5825 5822 5792 5789 5803 5818 5826 5834 5830 5823 5821 5813 5806 5792 5788 5803 5800 5801 5801 5795 5793 5789 5782 5776 5769 5768 5767 5766 5767 5767 5766 5763 5762 5764 5765 5765 5765 5766 5766 5767 5767 5767 5767 5767 5768 5769 5770 5771 5771
5787 5801 5808 5810 5806 5808 5817 5834 5826 5820 5816 5808 5814 5790 5791 5796 5804 5805 5802 5798 5793 5789 5786 5779 5774 5767 5765 5766 5766 5766 5765 5762 5762 5764 5765 5766 5766 5767 5768 5769 5769 5769 5769 5769 5770 5771 5772 5773 5773
5837 5837 5817 5815 5807 5799 5822 5829 5835 5827 5813 5830 5822 5788 5785 5801 5807 5804 5803 5799 5793 5789 5786 5782 5774 5771 5767 5769 5766 5767 5765 5763 5764 5766 5767 5770 5771 5771 5771 5773 5771 5773 5774 5774 5774 5775 5777 5777 5777
5842 5812 5811 5820 5813 5809 5829 5820 5834 5833 5817 5822 5827 5814 5811 5809 5808 5802 5798 5796 5792 5788 5786 5787 5779 5770 5772 5776 5769 5768 5768 5767 5767 5770 5772 5773 5780 5781 5778 5776 5776 5777 5779 5780 5781 5784 5784 5783 5783
5826 5824 5821 5839 5834 5824 5830 5827 5824 5820 5813 5812 5815 5817 5811 5807 5802 5797 5794 5791 5791 5790 5786 5784 5777 5777 5785 5782 5776 5776 5776 5778 5774 5775 5780 5784 5780 5783 5784 5782 5782 5784 5785 5786 5788 5791 5792 5790 5793
5839 5824 5835 5838 5841 5841 5832 5829 5836 5821 5807 5811 5804 5803 5806 5806 5800 5798 5797 5795 5795 5796 5793 5789 5786 5786 5792 5787 5783 5782 5781 5777 5774 5774 5780 5781 5785 5788 5790 5790 5791 5793 5791 5796 5794 5799 5801 5807 5809
5834 5846 5844 5838 5845 5839 5828 5838 5828 5834 5822 5826 5817 5812 5808 5805 5805 5805 5805 5796 5794 5796 5795 5789 5788 5789 5791 5784 5788 5787 5786 5785 5783 5779 5779 5783 5789 5789 5791 5794 5793 5796 5795 5798 5803 5804 5802 5805 5805
5841 5846 5848 5846 5845 5838 5836 5827 5821 5823 5830 5827 5819 5813 5809 5810 5808 5810 5805 5799 5795 5792 5795 5789 5784 5784 5784 5784 5783 5787 5787 5790 5786 5785 5781 5787 5789 5788 5792 5791 5796 5796 5797 5797 5800 5802 5801 5808 5810
5844 5850 5844 5841 5837 5837 5825 5822 5824 5824 5829 5819 5814 5811 5815 5814 5812 5809 5801 5791 5793 5791 5792 5787 5780 5783 5783 5783 5780 5783 5789 5787 5788 5790 5784 5783 5789 5785 5792 5794 5798 5797 5794 5795 5796 5798 5805 5811 5816
5854 5837 5841 5838 5837 5831 5838 5819 5810 5827 5825 5814 5814 5813 5815 5813 5814 5808 5808 5798 5795 5797 5798 5785 5783 5785 5783 5783 5782 5787 5786 5791 5790 5791 5783 5782 5784 5785 5787 5795 5797 5796 5794 5796 5799 5800 5807 5811 5816
5835 5840 5813 5834 5838 5836 5815 5794 5816 5827 5819 5812 5814 5813 5811 5812 5812 5813 5810 5806 5799 5798 5795 5793 5796 5791 5787 5785 5785 5791 5791 5792 5792 5792 5790 5785 5785 5785 5787 5796 5797 5790 5793 5800 5800 5803 5803 5808 5809
5829 5792 5782 5822 5848 5835 5810 5805 5820 5827 5821 5813 5813 5810 5811 5810 5811 5811 5811 5810 5807 5801 5801 5795 5799 5796 5791 5787 5788 5788 5788 5789 5794 5793 5794 5789 5787 5788 5786 5792 5795 5788 5793 5799 5800 5801 5800 5801 5804
5819 5827 5834 5826 5843 5842 5837 5824 5824 5829 5828 5818 5817 5814 5813 5811 5809 5811 5813 5814 5808 5805 5801 5799 5797 5796 5792 5790 5788 5791 5794 5794 5797 5796 5798 5794 5792 5789 5787 5793 5791 5789 5795 5798 5797 5791 5795 5797 5804
5850 5824 5827 5828 5855 5848 5843 5828 5826 5833 5833 5823 5820 5814 5815 5814 5817 5815 5813 5812 5807 5804 5799 5796 5794 5793 5790 5788 5788 5791 5792 5795 5797 5798 5796 5794 5791 5792 5792 5794 5798 5796 5797 5795 5791 5793 5794 5799 5808
5853 5842 5843 5852 5859 5847 5842 5827 5833 5833 5833 5829 5826 5822 5820 5818 5815 5813 5813 5813 5809 5803 5800 5797 5795 5792 5789 5791 5791 5795 5794 5795 5798 5795 5793 5796 5793 5793 5792 5791 5794 5796 5796 5797 5795 5794 5793 5800 5807
5856 5852 5844 5842 5853 5818 5772 5817 5826 5835 5838 5834 5834 5831 5830 5822 5814 5813 5813 5812 5812 5806 5800 5797 5794 5792 5789 5790 5791 5789 5789 5790 5794 5795 5798 5797 5793 5793 5791 5790 5790 5791 5791 5796 5799 5796 5794 5792 5802
5853 5869 5859 5851 5844 5817 5841 5753 5768 5826 5828 5827 5830 5829 5830 5829 5823 5819 5815 5813 5813 5812 5809 5803 5796 5792 5790 5788 5787 5785 5781 5783 5792 5791 5797 5795 5794 5791 5792 5792 5791 5790 5792 5793 5795 5797 5796 5795 5792
5841 5860 5857 5861 5839 5824 5827 5816 5796 5803 5824 5826 5831 5830 5833 5834 5832 5822 5822 5820 5819 5818 5812 5808 5799 5791 5789 5788 5784 5786 5782 5787 5790 5778 5779 5799 5793 5790 5791 5791 5790 5791 5791 5794 5794 5794 5794 5795 5795
5854 5845 5846 5854 5856 5825 5855 5844 5820 5827 5829 5831 5837 5834 5831 5832 5832 5833 5831 5824 5819 5820 5817 5812 5804 5795 5792 5788 5779 5776 5772 5777 5783 5771 5764 5791 5792 5788 5785 5793 5790 5788 5788 5789 5790 5791 5792 5792 5794
5837 5834 5810 5807 5816 5819 5868 5838 5816 5826 5829 5836 5834 5834 5829 5825 5828 5827 5821 5817 5814 5806 5802 5801 5801 5781 5779 5778 5774 5771 5771 5770 5774 5777 5775 5774 5776 5776 5782 5781 5782 5783 5784 5785 5788 5790 5790 5791 5790
5823 5834 5825 5798 5820 5836 5844 5817 5812 5825 5822 5825 5826 5835 5831 5824 5824 5820 5813 5813 5803 5799 5791 5784 5778 5772 5769 5763 5763 5759 5761 5764 5764 5763 5764 5763 5764 5768 5771 5774 5777 5780 5780 5780 5782 5784 5789 5790 5791
5825 5814 5850 5830 5844 5825 5843 5815 5815 5818 5813 5816 5820 5820 5825 5820 5809 5804 5795 5786 5787 5779 5776 5766 5759 5755 5751 5755 5750 5748 5746 5747 5747 5751 5756 5763 5761 5762 5763 5761 5767 5771 5773 5778 5779 5780 5781 5782 5786
5820 5841 5808 5812 5780 5780 5817 5826 5809 5797 5799 5799 5802 5799 5784 5777 5778 5768 5773 5771 5768 5763 5762 5759 5751 5744 5743 5745 5742 5737 5737 5743 5741 5742 5746 5750 5750 5753 5750 5751 5759 5763 5767 5771 5776 5780 5780 5777 5780
5803 5799 5812 5824 5823 5800 5796 5805 5824 5806 5797 5781 5767 5755 5750 5754 5754 5751 5749 5749 5744 5744 5746 5746 5745 5739 5736 5735 5732 5731 5732 5735 5733 5733 5741 5742 5746 5744 5744 5744 5751 5755 5759 5762 5766 5770 5771 5772 5773
5813 5815 5816 5798 5788 5807 5804 5792 5807 5796 5783 5758 5746 5736 5730 5729 5729 5730 5733 5732 5729 5728 5727 5729 5725 5725 5721 5717 5719 5716 5722 5725 5724 5725 5729 5732 5731 5733 5735 5742 5747 5750 5754 5755 5757 5761 5764 5767 5769